Location: Granada
(37.1830°N, 3.6000°W)
Time: 02:39:38
(UTC+01:00)

Iridium 70 - Visible Passes

Search period start: 13 December 2017 00:00
Search period end: 23 December 2017 00:00
Orbit: 776 x 779 km, 86.4° (Epoch: 12 December)

Date Brightness Start Highest point End Pass type
(mag) Time Alt. Az. Time Alt. Az. Time Alt. Az.
13 Dec 7.7 05:01:25 10° SE 05:03:26 20° SE 05:03:26 20° SE visible
13 Dec 7.1 06:42:03 10° SW 06:53:31 - N 06:43:44 18° SW visible
13 Dec 8.5 18:56:40 10° WNW 18:58:26 12° WNW 19:00:12 10° W visible
14 Dec 7.7 06:07:44 10° SSW 06:08:18 13° SSW 06:08:18 13° SSW visible
14 Dec 8.1 18:21:17 10° NNW 18:25:15 23° W 18:29:13 10° SW visible
17 Dec 8.3 18:22:13 10° NW 18:25:09 15° W 18:28:07 10° WSW visible
